Home   Weather   Fairfield   Past weeks
Flag for USA

Past Weather in Fairfield, Oklahoma, USA — Yesterday and Last 2 Weeks

Now
68 °F

Partly sunny.


Feels Like: 68 °F
Forecast: 66 / 46 °F
Wind: 14 mph from North

Location: Drake Field
Current Time: Sep 28, 2020 at 3:04:20 pm
Latest Report: Sep 28, 2020 at 1:53 pm
Visibility: 10 mi
Pressure30.04 "Hg
Humidity: 47%
Dew Point: 47 °F
Location of FairfieldLocation

Past Weather in Fairfield — Graph

°F

Fairfield Temperature Yesterday

Maximum temperature yesterday: 81 °F (at 12:53 pm)
Minimum temperature yesterday: 55 °F (at 9:15 pm)
Average temperature yesterday: 65 °F

High & Low Weather Summary for the Past Weeks

 TemperatureHumidityPressure
High86 °F (Sep 15, 3:53 pm)100% (Sep 15, 4:21 am)30.27 "Hg (Sep 15, 4:21 am)
Low44 °F (Sep 20, 6:53 am)35% (Sep 15, 3:53 pm)29.72 "Hg (Sep 27, 2:53 pm)
Average64 °F82%30.06 "Hg
* Reported Sep 13 12:53 pm — Sep 28 12:53 pm, Fairfield. Weather by CustomWeather, © 2020

Note: Actual official high and low records may vary slightly from our data, if they occured in-between our weather recording intervals... More about our weather records

Fairfield Weather History for the Previous 24 Hours

Scroll right to see more
 ConditionsComfort  
Time TempWeatherWind HumidityBarometerVisibility
12:53 pm
Mon, Sep 28
67 °FPartly sunny.16 mph49%30.06 "Hg10 mi
11:53 am65 °FPassing clouds.16 mph54%30.07 "Hg10 mi
10:53 am62 °FScattered clouds.15 mph67%30.07 "Hg10 mi
9:53 am58 °FSunny.8 mph81%30.06 "Hg10 mi
8:53 am56 °FSunny.8 mph87%30.05 "Hg10 mi
7:53 am52 °FScattered clouds.7 mph97%30.03 "Hg10 mi
7:24 am52 °FPartly sunny.6 mph97%30.04 "Hg10 mi
6:53 am52 °FPassing clouds.7 mph97%29.99 "Hg10 mi
6:40 am53 °FPassing clouds.7 mph93%30.00 "Hg10 mi
6:24 am53 °FPartly cloudy.7 mph96%30.00 "Hg10 mi
5:53 am54 °FMostly cloudy.7 mph93%29.96 "Hg10 mi
5:20 am54 °FPassing clouds.7 mph97%29.99 "Hg10 mi
5:13 am54 °FPassing clouds.9 mph97%29.99 "Hg10 mi
4:53 am54 °FPassing clouds.5 mph93%29.93 "Hg10 mi
4:37 am54 °FMostly cloudy.No wind97%29.96 "Hg10 mi
3:53 am54 °FOvercast.No wind97%29.94 "Hg10 mi
2:53 am55 °FMostly cloudy.6 mph93%29.94 "Hg10 mi
1:53 am55 °FMostly cloudy.9 mph96%29.93 "Hg10 mi
1:34 am55 °FMostly cloudy.6 mph96%29.96 "Hg10 mi
12:53 am55 °FLight rain. Mostly cloudy.7 mph96%29.90 "Hg7 mi
11:53 pm
Sun, Sep 27
56 °FOvercast.5 mph93%29.90 "Hg10 mi
11:00 pm56 °FMostly cloudy.7 mph90%29.94 "Hg10 mi
10:25 pm55 °FLight rain. Mostly cloudy.3 mph100%29.94 "Hg10 mi
10:17 pm55 °FThundershowers. Fog.3 mph96%29.95 "Hg6 mi
10:11 pm55 °FStrong thunderstorms. Fog.6 mph96%29.95 "Hg3 mi
9:53 pm55 °FStrong thunderstorms. Fog.6 mph96%29.92 "Hg2 mi
9:36 pm56 °FThunderstorms. Fog.9 mph93%29.94 "Hg5 mi
9:19 pm55 °FHeavy rain. Fog.10 mph96%29.93 "Hg3 mi
9:15 pm55 °FHeavy rain. Fog.8 mph96%29.93 "Hg2 mi
8:00 pm61 °FRain. Fog.10 mph93%29.81 "Hg4 mi
6:53 pm75 °FLight rain. Cloudy.9 mph79%29.73 "Hg10 mi
5:53 pm78 °FMostly cloudy.13 mph71%29.73 "Hg10 mi
4:53 pm81 °FMore clouds than sun.8 mph65%29.72 "Hg10 mi
3:53 pm80 °FPartly sunny.9 mph64%29.72 "Hg10 mi
Weather by CustomWeather, © 2020

See weather overview